Time,TemperatureF,DewpointF,PressureIn,WindDirection,WindDirectionDegrees,WindSpeedMPH,WindSpeedGustMPH,Humidity,HourlyPrecipIn,Conditions,Clouds,dailyrainin,SoftwareType,DateUTC
2013-03-14 00:10:00,45.1,24.5,30.07,ESE,112,0.0,-999.0,44,-99.99,,,0.00,Acu-Link.com,2013-03-14 06:10:00,
2013-03-14 00:25:00,44.1,23.1,30.07,East,90,0.0,-999.0,43,-99.99,,,0.00,Acu-Link.com,2013-03-14 06:25:00,
2013-03-14 00:40:00,44.1,23.6,30.07,West,270,0.0,-999.0,44,-99.99,,,0.00,Acu-Link.com,2013-03-14 06:40:00,
2013-03-14 01:11:00,42.4,23.1,30.07,East,90,0.0,-999.0,46,-99.99,,,0.00,Acu-Link.com,2013-03-14 07:11:00,
2013-03-14 01:26:00,41.9,23.2,30.08,NNW,337,0.0,-999.0,47,-99.99,,,0.00,Acu-Link.com,2013-03-14 07:26:00,
2013-03-14 01:42:00,41.5,23.3,30.07,East,90,0.0,-999.0,48,-99.99,,,0.00,Acu-Link.com,2013-03-14 07:42:00,
2013-03-14 01:57:00,41.4,23.2,30.07,SSE,157,0.0,-999.0,48,-99.99,,,0.00,Acu-Link.com,2013-03-14 07:57:00,
2013-03-14 02:12:00,43.5,24.1,30.08,East,90,0.0,-999.0,46,-99.99,,,0.00,Acu-Link.com,2013-03-14 08:12:00,
2013-03-14 02:27:00,44.8,24.8,30.07,SSE,157,0.0,-999.0,45,-99.99,,,0.00,Acu-Link.com,2013-03-14 08:27:00,
2013-03-14 02:43:00,45.9,25.8,30.06,SE,135,0.0,-999.0,45,-99.99,,,0.00,Acu-Link.com,2013-03-14 08:43:00,
2013-03-14 02:58:00,44.4,24.4,30.07,East,90,0.0,-999.0,45,-99.99,,,0.00,Acu-Link.com,2013-03-14 08:58:00,
2013-03-14 03:13:00,43.7,24.3,30.07,SSW,202,0.0,-999.0,46,-99.99,,,0.00,Acu-Link.com,2013-03-14 09:13:00,
2013-03-14 03:29:00,43.0,24.7,30.08,SE,135,0.0,-999.0,48,-99.99,,,0.00,Acu-Link.com,2013-03-14 09:29:00,
2013-03-14 03:44:00,43.2,24.9,30.06,East,90,0.0,-999.0,48,-99.99,,,0.00,Acu-Link.com,2013-03-14 09:44:00,
2013-03-14 03:59:00,41.9,24.2,30.07,East,90,0.0,-999.0,49,-99.99,,,0.00,Acu-Link.com,2013-03-14 09:59:00,
2013-03-14 04:14:00,41.0,24.3,30.07,East,90,0.0,-999.0,51,-99.99,,,0.00,Acu-Link.com,2013-03-14 10:14:00,
2013-03-14 04:29:00,41.4,24.6,30.06,East,90,0.0,-999.0,51,-99.99,,,0.00,Acu-Link.com,2013-03-14 10:29:00,
2013-03-14 04:45:00,41.4,25.1,30.07,East,90,0.0,-999.0,52,-99.99,,,0.00,Acu-Link.com,2013-03-14 10:45:00,
2013-03-14 05:00:00,41.0,24.7,30.09,SSW,202,0.0,-999.0,52,-99.99,,,0.00,Acu-Link.com,2013-03-14 11:00:00,
2013-03-14 05:15:00,40.6,24.4,30.09,ESE,112,0.0,-999.0,52,-99.99,,,0.00,Acu-Link.com,2013-03-14 11:15:00,
2013-03-14 05:30:00,39.7,24.4,30.10,SSW,202,0.0,-999.0,54,-99.99,,,0.00,Acu-Link.com,2013-03-14 11:30:00,
2013-03-14 05:45:00,39.0,24.2,30.10,SSE,157,0.0,-999.0,55,-99.99,,,0.00,Acu-Link.com,2013-03-14 11:45:00,
2013-03-14 06:16:00,37.0,24.4,30.10,SW,225,0.0,-999.0,60,-99.99,,,0.00,Acu-Link.com,2013-03-14 12:16:00,
2013-03-14 06:47:00,36.0,24.3,30.11,ENE,67,0.0,-999.0,62,-99.99,,,0.00,Acu-Link.com,2013-03-14 12:47:00,
2013-03-14 07:02:00,35.8,24.5,30.11,SSE,157,0.0,-999.0,63,-99.99,,,0.00,Acu-Link.com,2013-03-14 13:02:00,
2013-03-14 07:17:00,35.8,24.1,30.12,South,180,0.0,-999.0,62,-99.99,,,0.00,Acu-Link.com,2013-03-14 13:17:00,
2013-03-14 07:33:00,35.6,24.3,30.11,South,180,0.0,-999.0,63,-99.99,,,0.00,Acu-Link.com,2013-03-14 13:33:00,
2013-03-14 07:48:00,35.6,24.6,30.11,East,90,0.0,-999.0,64,-99.99,,,0.00,Acu-Link.com,2013-03-14 13:48:00,
2013-03-14 08:03:00,38.1,27.0,30.11,SE,135,0.0,-999.0,64,-99.99,,,0.00,Acu-Link.com,2013-03-14 14:03:00,
2013-03-14 08:19:00,41.5,28.3,30.12,North,0,0.0,-999.0,59,-99.99,,,0.00,Acu-Link.com,2013-03-14 14:19:00,
2013-03-14 08:34:00,43.9,27.9,30.14,NW,315,1.7,-999.0,53,-99.99,,,0.00,Acu-Link.com,2013-03-14 14:34:00,
2013-03-14 08:49:00,46.6,28.5,30.14,East,90,1.1,-999.0,49,-99.99,,,0.00,Acu-Link.com,2013-03-14 14:49:00,
2013-03-14 09:04:00,51.1,30.5,30.13,East,90,2.7,-999.0,45,-99.99,,,0.00,Acu-Link.com,2013-03-14 15:04:00,
2013-03-14 09:19:00,54.7,30.9,30.14,NE,45,2.7,-999.0,40,-99.99,,,0.00,Acu-Link.com,2013-03-14 15:19:00,
2013-03-14 09:35:00,54.0,30.2,30.15,East,90,3.2,-999.0,40,-99.99,,,0.00,Acu-Link.com,2013-03-14 15:35:00,
2013-03-14 09:50:00,54.9,31.0,30.13,NNE,22,2.7,-999.0,40,-99.99,,,0.00,Acu-Link.com,2013-03-14 15:50:00,
2013-03-14 10:05:00,56.8,31.5,30.15,NE,45,0.0,-999.0,38,-99.99,,,0.00,Acu-Link.com,2013-03-14 16:05:00,
2013-03-14 10:36:00,60.8,32.3,30.15,ENE,67,2.7,-999.0,34,-99.99,,,0.00,Acu-Link.com,2013-03-14 16:36:00,
2013-03-14 10:51:00,62.2,32.7,30.14,SSE,157,1.1,-999.0,33,-99.99,,,0.00,Acu-Link.com,2013-03-14 16:51:00,
2013-03-14 11:07:00,63.5,33.1,30.14,SW,225,0.0,-999.0,32,-99.99,,,0.00,Acu-Link.com,2013-03-14 17:07:00,
2013-03-14 11:22:00,65.3,32.2,30.12,ENE,67,1.7,-999.0,29,-99.99,,,0.00,Acu-Link.com,2013-03-14 17:22:00,
2013-03-14 11:37:00,66.7,32.6,30.12,North,0,1.7,-999.0,28,-99.99,,,0.00,Acu-Link.com,2013-03-14 17:37:00,
2013-03-14 11:52:00,67.8,30.7,30.12,ENE,67,4.2,-999.0,25,-99.99,,,0.00,Acu-Link.com,2013-03-14 17:52:00,
2013-03-14 12:08:00,67.5,29.4,30.11,NE,45,5.3,-999.0,24,-99.99,,,0.00,Acu-Link.com,2013-03-14 18:08:00,
2013-03-14 12:23:00,70.3,28.5,30.11,West,270,2.7,-999.0,21,-99.99,,,0.00,Acu-Link.com,2013-03-14 18:23:00,
2013-03-14 12:38:00,71.1,28.0,30.11,NNW,337,1.7,-999.0,20,-99.99,,,0.00,Acu-Link.com,2013-03-14 18:38:00,
2013-03-14 12:54:00,72.7,29.3,30.10,NE,45,3.2,-999.0,20,-99.99,,,0.00,Acu-Link.com,2013-03-14 18:54:00,
2013-03-14 13:09:00,74.7,28.4,30.09,West,270,2.7,-999.0,18,-99.99,,,0.00,Acu-Link.com,2013-03-14 19:09:00,
2013-03-14 13:24:00,75.2,27.4,30.08,West,270,3.7,-999.0,17,-99.99,,,0.00,Acu-Link.com,2013-03-14 19:24:00,
2013-03-14 13:39:00,76.3,21.8,30.09,WSW,247,0.0,-999.0,13,-99.99,,,0.00,Acu-Link.com,2013-03-14 19:39:00,
2013-03-14 13:55:00,79.0,-29.4,30.07,ESE,112,0.0,-999.0,1,-99.99,,,0.00,Acu-Link.com,2013-03-14 19:55:00,
2013-03-14 14:10:00,76.3,17.9,30.08,WNW,292,1.7,-999.0,11,-99.99,,,0.00,Acu-Link.com,2013-03-14 20:10:00,
2013-03-14 14:25:00,75.7,-31.4,30.05,ENE,67,0.0,-999.0,1,-99.99,,,0.00,Acu-Link.com,2013-03-14 20:25:00,
2013-03-14 14:40:00,77.2,-30.5,30.05,North,0,2.2,-999.0,1,-99.99,,,0.00,Acu-Link.com,2013-03-14 20:40:00,
2013-03-14 15:26:00,76.1,-31.2,30.03,West,270,2.2,-999.0,1,-99.99,,,0.00,Acu-Link.com,2013-03-14 21:26:00,
2013-03-14 15:42:00,77.4,-30.4,30.03,SSE,157,1.7,-999.0,1,-99.99,,,0.00,Acu-Link.com,2013-03-14 21:42:00,
2013-03-14 15:57:00,77.0,-30.6,30.02,SW,225,4.2,-999.0,1,-99.99,,,0.00,Acu-Link.com,2013-03-14 21:57:00,
2013-03-14 16:12:00,74.5,-32.1,30.01,ENE,67,1.7,-999.0,1,-99.99,,,0.00,Acu-Link.com,2013-03-14 22:12:00,
2013-03-14 16:27:00,75.9,-31.3,30.00,WSW,247,1.1,-999.0,1,-99.99,,,0.00,Acu-Link.com,2013-03-14 22:27:00,
2013-03-14 16:43:00,76.1,-31.2,30.00,ESE,112,0.0,-999.0,1,-99.99,,,0.00,Acu-Link.com,2013-03-14 22:43:00,
2013-03-14 16:58:00,75.6,-31.5,30.00,NE,45,2.7,-999.0,1,-99.99,,,0.00,Acu-Link.com,2013-03-14 22:58:00,
2013-03-14 17:13:00,81.0,-28.2,29.99,WSW,247,0.0,-999.0,1,-99.99,,,0.00,Acu-Link.com,2013-03-14 23:13:00,
2013-03-14 17:29:00,74.1,-32.4,30.00,North,0,1.7,-999.0,1,-99.99,,,0.00,Acu-Link.com,2013-03-14 23:29:00,
2013-03-14 17:44:00,76.8,-30.7,29.98,NE,45,0.0,-999.0,1,-99.99,,,0.00,Acu-Link.com,2013-03-14 23:44:00,
2013-03-14 17:59:00,75.2,-31.7,29.98,NNE,22,0.0,-999.0,1,-99.99,,,0.00,Acu-Link.com,2013-03-14 23:59:00,
2013-03-14 18:14:00,75.6,-31.5,29.98,ESE,112,0.0,-999.0,1,-99.99,,,0.00,Acu-Link.com,2013-03-15 00:14:00,
2013-03-14 18:30:00,74.1,-32.4,29.98,WSW,247,1.7,-999.0,1,-99.99,,,0.00,Acu-Link.com,2013-03-15 00:30:00,
2013-03-14 18:45:00,73.9,-32.5,29.97,ESE,112,1.7,-999.0,1,-99.99,,,0.00,Acu-Link.com,2013-03-15 00:45:00,
2013-03-14 19:00:00,71.6,-33.9,29.99,West,270,1.1,-999.0,1,-99.99,,,0.00,Acu-Link.com,2013-03-15 01:00:00,
2013-03-14 19:15:00,69.4,19.8,29.98,SE,135,2.2,-999.0,15,-99.99,,,0.00,Acu-Link.com,2013-03-15 01:15:00,
2013-03-14 19:30:00,67.5,19.7,29.98,SSE,157,0.0,-999.0,16,-99.99,,,0.00,Acu-Link.com,2013-03-15 01:30:00,
2013-03-14 19:46:00,65.3,20.7,29.99,ESE,112,0.0,-999.0,18,-99.99,,,0.00,Acu-Link.com,2013-03-15 01:46:00,
2013-03-14 20:16:00,62.2,20.6,29.99,ESE,112,0.0,-999.0,20,-99.99,,,0.00,Acu-Link.com,2013-03-15 02:16:00,
2013-03-14 20:32:00,60.6,22.6,29.99,ESE,112,0.0,-999.0,23,-99.99,,,0.00,Acu-Link.com,2013-03-15 02:32:00,
2013-03-14 20:47:00,59.2,21.4,29.99,SSE,157,0.0,-999.0,23,-99.99,,,0.00,Acu-Link.com,2013-03-15 02:47:00,
2013-03-14 21:02:00,57.4,23.7,30.00,SW,225,0.0,-999.0,27,-99.99,,,0.00,Acu-Link.com,2013-03-15 03:02:00,
2013-03-14 21:18:00,56.1,23.5,29.99,SSE,157,0.0,-999.0,28,-99.99,,,0.00,Acu-Link.com,2013-03-15 03:18:00,
2013-03-14 21:33:00,54.5,24.5,30.00,West,270,0.0,-999.0,31,-99.99,,,0.00,Acu-Link.com,2013-03-15 03:33:00,
2013-03-14 21:48:00,53.8,23.9,30.01,South,180,0.0,-999.0,31,-99.99,,,0.00,Acu-Link.com,2013-03-15 03:48:00,
2013-03-14 22:04:00,52.5,24.2,30.01,ESE,112,0.0,-999.0,33,-99.99,,,0.00,Acu-Link.com,2013-03-15 04:04:00,
2013-03-14 22:19:00,51.4,24.0,30.02,SE,135,0.0,-999.0,34,-99.99,,,0.00,Acu-Link.com,2013-03-15 04:19:00,
2013-03-14 22:34:00,50.7,24.7,30.02,East,90,0.0,-999.0,36,-99.99,,,0.00,Acu-Link.com,2013-03-15 04:34:00,
2013-03-14 22:50:00,50.0,26.0,30.02,South,180,0.0,-999.0,39,-99.99,,,0.00,Acu-Link.com,2013-03-15 04:50:00,
2013-03-14 23:05:00,49.8,25.9,30.02,SE,135,0.0,-999.0,39,-99.99,,,0.00,Acu-Link.com,2013-03-15 05:05:00,
2013-03-14 23:20:00,49.6,25.7,30.02,SE,135,0.0,-999.0,39,-99.99,,,0.00,Acu-Link.com,2013-03-15 05:20:00,
2013-03-14 23:35:00,48.6,26.0,30.02,NW,315,0.0,-999.0,41,-99.99,,,0.00,Acu-Link.com,2013-03-15 05:35:00,
2013-03-14 23:50:00,47.7,25.2,30.02,East,90,0.0,-999.0,41,-99.99,,,0.00,Acu-Link.com,2013-03-15 05:50:00,